Perryton, TX

5:45 AM CST on February 28, 2017 (GMT -0600)
Perryton Ochiltree County

Weather History for KPYX - February, 2012

Change the Weather History Date:

Wednesday, February 22, 2012

  Actual Average Record
Temperature  
Mean Temperature 52 °F -  
Max Temperature 71 °F 51 °F 81 °F (2017)
Min Temperature 32 °F 22 °F 0 °F (1978)
Degree Days  
Heating Degree Days 14    
Growing Degree Days 2 (Base 50)    
Moisture  
Dew Point 27 °F    
Average Humidity 44    
Maximum Humidity 75    
Minimum Humidity 19    
Precipitation  
Precipitation 0.00 in - - ()
Sea Level Pressure  
Sea Level Pressure 29.64 in    
Wind  
Wind Speed 10 mph (SW)    
Max Wind Speed 20 mph    
Max Gust Speed 24 mph    
Visibility 10 miles    
Events      
Averages and records for this station are not official NWS values.
T = Trace of Precipitation, MM = Missing Value Source: NWS Daily Summary

Daily Weather History Graph

Daily Weather History Graph

Search for Another Location

Airport or City:

Trip Planner

Search our weather history database for the weather conditions in past years. The results will help you decide how hot, cold, wet, or windy it might be!

Date:

Astronomy

Feb. 22, 2012 Rise Set
Actual Time 7:23 AM CST 6:30 PM CST
Civil Twilight 6:57 AM CST 6:56 PM CST
Nautical Twilight 6:27 AM CST 7:26 PM CST
Astronomical Twilight 5:57 AM CST 7:56 PM CST
Moon 7:25 AM CST (2/22) 7:35 PM CST (2/22)
Length of Visible Light 11h 59m
Length of Day
11h 07m
New Moon, 1% of the Moon is Illuminated
Feb 22
New Moon
Feb 29
First Quarter
Mar 8
Full
Mar 14
Last Quarter
Mar 22
New

Hourly Weather History & Observations

Time (CST) Temp. Windchill Dew Point Humidity Pressure Visibility Wind Dir Wind Speed Gust Speed Precip Events Conditions
12:15 AM 33.8 °F 27.7 °F 23.0 °F 65% 29.80 in 10.0 mi SSW 6.9 mph - N/A   Clear
12:35 AM 32.0 °F 24.2 °F 23.0 °F 69% 29.80 in 10.0 mi SSW 9.2 mph - N/A   Clear
12:55 AM 32.0 °F 26.4 °F 23.0 °F 69% 29.79 in 10.0 mi SW 5.8 mph - N/A   Clear
1:15 AM 32.0 °F 24.8 °F 23.0 °F 69% 29.78 in 10.0 mi South 8.1 mph - N/A   Clear
1:35 AM 32.0 °F 24.8 °F 23.0 °F 69% 29.78 in 10.0 mi SSW 8.1 mph - N/A   Clear
1:55 AM 32.0 °F 24.2 °F 23.0 °F 69% 29.78 in 10.0 mi SSW 9.2 mph - N/A   Clear
2:15 AM 33.8 °F 26.4 °F 24.8 °F 70% 29.76 in 10.0 mi SSW 9.2 mph - N/A   Clear
2:35 AM 35.6 °F 28.6 °F 24.8 °F 65% 29.76 in 10.0 mi SSW 9.2 mph - N/A   Clear
2:55 AM 33.8 °F 27.0 °F 26.6 °F 75% 29.76 in 10.0 mi SSW 8.1 mph - N/A   Clear
3:15 AM 35.6 °F 29.2 °F 24.8 °F 65% 29.75 in 10.0 mi SSW 8.1 mph - N/A   Clear
3:35 AM 35.6 °F 29.2 °F 24.8 °F 65% 29.75 in 10.0 mi SW 8.1 mph - N/A   Clear
3:55 AM 33.8 °F 28.6 °F 24.8 °F 70% 29.74 in 10.0 mi West 5.8 mph - N/A   Clear
4:15 AM 35.6 °F 29.2 °F 23.0 °F 60% 29.73 in 10.0 mi West 8.1 mph - N/A   Clear
4:35 AM 33.8 °F 26.4 °F 24.8 °F 70% 29.73 in 10.0 mi West 9.2 mph - N/A   Clear
5:15 AM 33.8 °F 26.4 °F 23.0 °F 65% 29.73 in 10.0 mi WNW 9.2 mph - N/A   Clear
5:35 AM 33.8 °F 26.4 °F 23.0 °F 65% 29.73 in 10.0 mi WNW 9.2 mph - N/A   Clear
6:35 AM 33.8 °F 25.8 °F 23.0 °F 65% 29.76 in 10.0 mi WNW 10.4 mph - N/A   Clear
6:55 AM 35.6 °F 27.5 °F 23.0 °F 60% 29.76 in 10.0 mi WNW 11.5 mph - N/A   Clear
7:15 AM 35.6 °F 28.6 °F 23.0 °F 60% 29.74 in 10.0 mi West 9.2 mph - N/A   Clear
7:35 AM 33.8 °F 26.4 °F 23.0 °F 65% 29.74 in 10.0 mi West 9.2 mph - N/A   Clear
7:55 AM 33.8 °F 25.8 °F 24.8 °F 70% 29.76 in 10.0 mi WNW 10.4 mph - N/A   Clear
8:55 AM 46.4 °F 41.9 °F 26.6 °F 46% 29.77 in 10.0 mi West 9.2 mph - N/A   Clear
9:35 AM 51.8 °F - 26.6 °F 38% 29.76 in 10.0 mi WNW 10.4 mph - N/A   Clear
9:55 AM 53.6 °F - 26.6 °F 35% 29.75 in 10.0 mi WNW 9.2 mph - N/A   Clear
10:15 AM 55.4 °F - 26.6 °F 33% 29.74 in 10.0 mi West 9.2 mph - N/A   Clear
10:35 AM 59.0 °F - 26.6 °F 29% 29.75 in 10.0 mi West 8.1 mph - N/A   Clear
10:55 AM 60.8 °F - 26.6 °F 27% 29.76 in 10.0 mi WNW 9.2 mph - N/A   Clear
11:15 AM 62.6 °F - 26.6 °F 26% 29.75 in 10.0 mi WSW 10.4 mph - N/A   Clear
11:35 AM 62.6 °F - 24.8 °F 24% 29.74 in 10.0 mi West 10.4 mph - N/A   Clear
11:55 AM 62.6 °F - 24.8 °F 24% 29.73 in 10.0 mi WSW 10.4 mph - N/A   Clear
12:15 PM 64.4 °F - 26.6 °F 24% 29.72 in 10.0 mi SW 10.4 mph - N/A   Clear
12:35 PM 66.2 °F - 26.6 °F 23% 29.71 in 10.0 mi WSW 15.0 mph - N/A   Clear
12:55 PM 68.0 °F - 26.6 °F 21% 29.70 in 10.0 mi WSW 13.8 mph 19.6 mph N/A   Clear
1:15 PM 68.0 °F - 28.4 °F 23% 29.68 in 10.0 mi WSW 12.7 mph 23.0 mph N/A   Clear
1:35 PM 68.0 °F - 28.4 °F 23% 29.66 in 10.0 mi SW 12.7 mph 19.6 mph N/A   Clear
1:55 PM 69.8 °F - 28.4 °F 21% 29.65 in 10.0 mi SW 18.4 mph 21.9 mph N/A   Clear
2:15 PM 69.8 °F - 28.4 °F 21% 29.63 in 10.0 mi SW 13.8 mph 19.6 mph N/A   Clear
2:35 PM 71.6 °F - 26.6 °F 19% 29.63 in 10.0 mi WSW 13.8 mph - N/A   Clear
2:55 PM 71.6 °F - 26.6 °F 19% 29.63 in 10.0 mi WSW 16.1 mph 21.9 mph N/A   Clear
3:15 PM 71.6 °F - 26.6 °F 19% 29.61 in 10.0 mi SW 13.8 mph 20.7 mph N/A   Clear
3:35 PM 71.6 °F - 26.6 °F 19% 29.61 in 10.0 mi SW 18.4 mph 23.0 mph N/A   Clear
3:55 PM 71.6 °F - 26.6 °F 19% 29.59 in 10.0 mi SW 19.6 mph - N/A   Clear
4:15 PM 71.6 °F - 26.6 °F 19% 29.57 in 10.0 mi SW 18.4 mph 24.2 mph N/A   Clear
4:35 PM 69.8 °F - 26.6 °F 20% 29.56 in 10.0 mi SW 15.0 mph 23.0 mph N/A   Clear
4:55 PM 68.0 °F - 28.4 °F 23% 29.55 in 10.0 mi SSW 12.7 mph - N/A   Clear
5:15 PM 66.2 °F - 30.2 °F 26% 29.55 in 10.0 mi SSW 11.5 mph - N/A   Clear
5:35 PM 64.4 °F - 30.2 °F 28% 29.55 in 10.0 mi SSW 9.2 mph - N/A   Clear
5:55 PM 60.8 °F - 32.0 °F 34% 29.55 in 10.0 mi South 8.1 mph - N/A   Clear
6:15 PM 59.0 °F - 32.0 °F 36% 29.54 in 10.0 mi South 9.2 mph - N/A   Clear
6:35 PM 53.6 °F - 32.0 °F 44% 29.52 in 10.0 mi South 10.4 mph - N/A   Clear
6:55 PM 53.6 °F - 32.0 °F 44% 29.52 in 10.0 mi South 8.1 mph - N/A   Clear
7:15 PM 50.0 °F - 32.0 °F 50% 29.51 in 10.0 mi South 8.1 mph - N/A   Clear
7:35 PM 51.8 °F - 32.0 °F 47% 29.50 in 10.0 mi South 10.4 mph - N/A   Clear
7:55 PM 53.6 °F - 30.2 °F 41% 29.48 in 10.0 mi South 11.5 mph - N/A   Clear
8:15 PM 53.6 °F - 28.4 °F 38% 29.46 in 10.0 mi South 12.7 mph - N/A   Clear
8:35 PM 53.6 °F - 28.4 °F 38% 29.45 in 10.0 mi South 13.8 mph - N/A   Clear
8:55 PM 53.6 °F - 28.4 °F 38% 29.44 in 10.0 mi South 12.7 mph - N/A   Clear
9:15 PM 53.6 °F - 30.2 °F 41% 29.43 in 10.0 mi South 15.0 mph - N/A   Clear
9:35 PM 55.4 °F - 30.2 °F 38% 29.43 in 10.0 mi South 15.0 mph - N/A   Clear
9:55 PM 53.6 °F - 30.2 °F 41% 29.42 in 10.0 mi SSW 12.7 mph - N/A   Clear
10:15 PM 51.8 °F - 32.0 °F 47% 29.42 in 10.0 mi SSW 10.4 mph - N/A   Clear
10:35 PM 50.0 °F - 32.0 °F 50% 29.42 in 10.0 mi SSW 10.4 mph - N/A   Clear
10:55 PM 46.4 °F 41.1 °F 32.0 °F 57% 29.40 in 10.0 mi SSW 11.5 mph - N/A   Clear
11:15 PM 48.2 °F - 32.0 °F 54% 29.39 in 10.0 mi SW 10.4 mph - N/A   Clear
11:35 PM 46.4 °F 41.1 °F 32.0 °F 57% 29.37 in 10.0 mi SW 11.5 mph - N/A   Clear
11:55 PM 51.8 °F - 30.2 °F 44% 29.36 in 10.0 mi WSW 17.3 mph - N/A   Clear